Change the Weather History Date:

Monday, October 29, 2012

  Actual Average Record
Temperature  
Mean Temperature 45 °F -  
Max Temperature 55 °F 63 °F 82 °F (2006)
Min Temperature 35 °F 46 °F 35 °F (2008)
Degree Days  
Heating Degree Days 20    
Moisture  
Dew Point 22 °F    
Average Humidity 40    
Maximum Humidity 70    
Minimum Humidity 23    
Precipitation  
Precipitation 0.00 in - - ()
Sea Level Pressure  
Sea Level Pressure 29.93 in    
Wind  
Wind Speed 1 mph ()    
Max Wind Speed 5 mph    
Max Gust Speed -    
Averages and records for this station are not official NWS values.
T = Trace of Precipitation, MM = Missing Value Source: Averaged Metar Reports

Daily Weather History Graph

Daily Weather History Graph

Search for Another Location

Airport or City:

Trip Planner

Search our weather history database for the weather conditions in past years. The results will help you decide how hot, cold, wet, or windy it might be!

Date:

Astronomy

Oct. 29, 2012 Rise Set
Actual Time 7:41 AM CET 6:15 PM CET
Civil Twilight 7:13 AM CET 6:43 PM CET
Nautical Twilight 6:41 AM CET 7:15 PM CET
Astronomical Twilight 6:09 AM CET 7:47 PM CET
Moon 5:58 PM CET (10/29) 7:18 AM CET (10/29)
Length of Visible Light 11h 29m
Length of Day
10h 33m
Full, 100% of the Moon is Illuminated
Oct 29
Full
Oct 29
Full
Nov 7
Last Quarter
Nov 13
New
Nov 20
First Quarter

Hourly Weather History & Observations

Time (CET) Temp. Dew Point Humidity Pressure Visibility Wind Dir Wind Speed Gust Speed Precip Events Conditions
7:00 AM 35.6 °F 26.6 °F 70% 30.01 in - Calm Calm - N/A   Clear
7:30 AM 35.6 °F 26.6 °F 70% 30.01 in - Calm Calm - N/A   Clear
8:00 AM 35.6 °F 26.6 °F 70% 30.01 in - Calm Calm - N/A   Clear
8:30 AM 35.6 °F 26.6 °F 70% 30.01 in - Calm Calm - N/A   Clear
9:00 AM 41.0 °F 26.6 °F 57% 30.04 in - Calm Calm - N/A   Clear
9:30 AM 42.8 °F 24.8 °F 49% 30.01 in - Variable 1.2 mph - N/A   Clear
10:00 AM 46.4 °F 24.8 °F 43% 30.01 in - Variable 1.2 mph - N/A   Clear
10:30 AM 48.2 °F 23.0 °F 37% 30.01 in - Calm Calm - N/A   Clear
11:00 AM 48.2 °F 21.2 °F 34% 30.01 in - Calm Calm - N/A   Clear
11:30 AM 50.0 °F 21.2 °F 32% 29.98 in - Variable 2.3 mph - N/A   Clear
12:00 PM 51.8 °F 21.2 °F 30% 29.98 in - Variable 1.2 mph - N/A   Clear
12:30 PM 50.0 °F 19.4 °F 30% 29.98 in - Variable 2.3 mph - N/A   Clear
1:00 PM 50.0 °F 21.2 °F 32% 29.95 in - Variable 2.3 mph - N/A   Clear
1:30 PM 50.0 °F 21.2 °F 32% 29.95 in - Variable 2.3 mph - N/A   Clear
2:00 PM 53.6 °F 19.4 °F 26% 29.92 in - Variable 1.2 mph - N/A   Clear
2:30 PM 53.6 °F 19.4 °F 26% 29.92 in - South 3.5 mph - N/A   Clear
3:00 PM 53.6 °F 17.6 °F 24% 29.89 in - South 4.6 mph - N/A   Clear
3:30 PM 55.4 °F 19.4 °F 25% 29.89 in - South 4.6 mph - N/A   Clear
4:00 PM 55.4 °F 19.4 °F 25% 29.89 in - South 3.5 mph - N/A   Clear
4:30 PM 55.4 °F 17.6 °F 23% 29.89 in - Variable 2.3 mph - N/A   Clear
5:00 PM - - N/A% 29.89 in - North - - N/A   Clear
5:30 PM - - N/A% 29.89 in - North - - N/A   Clear
6:00 PM - - N/A% 29.86 in - North - - N/A   Clear
6:30 PM - - N/A% 29.86 in - North - - N/A   Clear
7:00 PM - - N/A% 29.86 in - North - - N/A   Clear
7:30 PM 50.0 °F 17.6 °F 28% 29.86 in - Calm Calm - N/A   Clear
8:00 PM 50.0 °F 19.4 °F 30% 29.86 in - Calm Calm - N/A   Clear
8:30 PM 46.4 °F 21.2 °F 37% 29.86 in - Calm Calm - N/A   Clear
9:30 PM 44.6 °F 23.0 °F 43% 29.83 in - Calm Calm - N/A   Clear
10:00 PM 44.6 °F 24.8 °F 46% 29.83 in - Calm Calm - N/A   Clear